Location: Casteau
(50.5142°N, 4.0161°E)
Time: 09:02:33
(UTC+00:00)

SL-14 R/B - Pass Details

Date: 18 September 2020
Orbit: 519 x 554 km, 82.4° (Epoch: 27 October)

Event Time Altitude Azimuth Distance (km) Brightness Sun altitude
Rises 20:46:18 0° 345° (NNW) 2,673 7.6 -26.5°
Reaches altitude 10° 20:48:28 10° 341° (NNW) 1,784 6.7 -26.8°
Enters shadow 20:51:24 42° 308° (NW) 772 4.4 -27.1°
